| time (UTC) | temp F | wind direction | speed MPH | gust MPH | rain 1hr in | rain 24hr in | rain mn in | humidity % | barometer mb |
| 20260507160036 | 55 | 127 | 4.0 | 11.0 | 0.23 | 1.00 | 1.00 | 95 | 1011.2 |
| 20260507154536 | 55 | 250 | 1.0 | 8.0 | 0.21 | 0.95 | 0.95 | 95 | 1011.0 |
| 20260507153039 | 54 | 45 | 2.0 | 8.0 | 0.19 | 0.92 | 0.92 | 95 | 1011.2 |
| 20260507151538 | 54 | 27 | 2.0 | 13.0 | 0.14 | 0.86 | 0.86 | 93 | 1011.5 |
| 20260507150043 | 55 | 9 | 4.0 | 14.0 | 0.05 | 0.77 | 0.77 | 92 | 1011.9 |
| 20260507144534 | 56 | 30 | 4.0 | 11.0 | 0.02 | 0.74 | 0.74 | 92 | 1011.3 |
| 20260507143028 | 57 | 116 | 3.0 | 9.0 | 0.01 | 0.73 | 0.73 | 91 | 1011.3 |
| 20260507141530 | 58 | 59 | 3.0 | 10.0 | 0.00 | 0.72 | 0.72 | 92 | 1011.0 |
| 20260507140038 | 59 | 19 | 5.0 | 10.0 | 0.01 | 0.72 | 0.72 | 94 | 1010.8 |
| 20260507134548 | 59 | 341 | 2.0 | 7.0 | 0.04 | 0.72 | 0.72 | 94 | 1010.9 |
| 20260507133056 | 59 | 349 | 3.0 | 11.0 | 0.05 | 0.72 | 0.72 | 94 | 1010.7 |
| 20260507131539 | 59 | 336 | 3.0 | 8.0 | 0.06 | 0.72 | 0.72 | 94 | 1010.7 |
| 20260507130007 | 59 | 5 | 3.0 | 10.0 | 0.09 | 0.71 | 0.71 | 94 | 1010.8 |
| 20260507124506 | 59 | 42 | 2.0 | 9.0 | 0.08 | 0.68 | 0.68 | 94 | 1011.2 |
| 20260507123013 | 59 | 294 | 2.0 | 11.0 | 0.08 | 0.67 | 0.67 | 94 | 1010.9 |
| 20260507121502 | 60 | 299 | 2.0 | 9.0 | 0.12 | 0.65 | 0.65 | 94 | 1011.0 |
| 20260507120001 | 60 | 131 | 2.0 | 9.0 | 0.11 | 0.62 | 0.62 | 93 | 1011.2 |
| 20260507114601 | 61 | 260 | 2.0 | 14.0 | 0.12 | 0.60 | 0.60 | 92 | 1011.0 |
| 20260507113053 | 63 | 5 | 3.0 | 8.0 | 0.14 | 0.59 | 0.59 | 91 | 1010.6 |
| 20260507111551 | 66 | 250 | 2.0 | 5.0 | 0.21 | 0.53 | 0.53 | 95 | 1010.4 |
| 20260507104548 | 66 | 244 | 3.0 | 7.0 | 0.44 | 0.48 | 0.48 | 94 | 1010.1 |
| 20260507103053 | 66 | 277 | 5.0 | 9.0 | 0.41 | 0.45 | 0.45 | 94 | 1009.9 |
| 20260507101548 | 67 | 288 | 3.0 | 7.0 | 0.28 | 0.32 | 0.32 | 93 | 1009.8 |
| 20260507100043 | 67 | 292 | 2.0 | 11.0 | 0.13 | 0.14 | 0.14 | 92 | 1009.9 |
| 20260507094540 | 67 | 287 | 3.0 | 6.0 | 0.03 | 0.04 | 0.04 | 91 | 1009.0 |
| 20260507093039 | 67 | 296 | 0.0 | 5.0 | 0.03 | 0.04 | 0.04 | 90 | 1008.9 |
| 20260507091542 | 68 | 305 | 3.0 | 10.0 | 0.02 | 0.03 | 0.03 | 88 | 1009.2 |
| 20260507090041 | 69 | 281 | 5.0 | 9.0 | 0.00 | 0.01 | 0.01 | 85 | 1009.5 |
| 20260507084539 | 69 | 290 | 2.0 | 10.0 | 0.00 | 0.01 | 0.01 | 85 | 1009.3 |
| 20260507083038 | 69 | 252 | 3.0 | 8.0 | 0.00 | 0.01 | 0.01 | 85 | 1009.4 |
| 20260507081533 | 69 | 257 | 3.0 | 8.0 | 0.00 | 0.01 | 0.01 | 85 | 1009.7 |
| 20260507080032 | 69 | 244 | 2.0 | 7.0 | 0.00 | 0.01 | 0.01 | 85 | 1009.9 |
| 20260507074541 | 68 | 223 | 4.0 | 10.0 | 0.00 | 0.01 | 0.01 | 85 | 1010.1 |
| 20260507073006 | 68 | 228 | 0.0 | 5.0 | 0.01 | 0.01 | 0.01 | 86 | 1009.9 |
| 20260507071505 | 68 | 269 | 2.0 | 8.0 | 0.01 | 0.01 | 0.01 | 85 | 1009.9 |
| 20260507070009 | 68 | 254 | 2.0 | 7.0 | 0.01 | 0.01 | 0.01 | 86 | 1009.8 |
| 20260507064502 | 68 | 261 | 0.0 | 6.0 | 0.01 | 0.01 | 0.01 | 85 | 1009.5 |
| 20260507063100 | 68 | 237 | 1.0 | 6.0 | 0.00 | 0.00 | 0.00 | 84 | 1009.2 |
| 20260507061558 | 69 | 200 | 0.0 | 5.0 | 0.00 | 0.00 | 0.00 | 83 | 1009.9 |
| 20260507060103 | 69 | 276 | 1.0 | 7.0 | 0.00 | 0.00 | 0.00 | 82 | 1010.7 |
| 20260507054554 | 70 | 251 | 2.0 | 6.0 | 0.00 | 0.00 | 0.00 | 81 | 1010.8 |
| 20260507053052 | 70 | 252 | 3.0 | 7.0 | 0.00 | 0.00 | 0.00 | 79 | 1010.8 |
| 20260507051545 | 71 | 188 | 1.0 | 6.0 | 0.00 | 0.00 | 0.00 | 78 | 1010.9 |
| 20260507050043 | 71 | 239 | 0.0 | 7.0 | 0.00 | 0.00 | 0.00 | 76 | 1010.8 |
| 20260507044539 | 72 | 234 | 1.0 | 5.0 | 0.00 | 0.00 | 0.00 | 73 | 1010.5 |
| 20260507043038 | 72 | 234 | 2.0 | 7.0 | 0.00 | 0.00 | 0.00 | 74 | 1010.6 |
| 20260507041535 | 71 | 215 | 2.0 | 7.0 | 0.00 | 0.00 | 0.00 | 75 | 1010.8 |
| 20260507040029 | 71 | 211 | 0.0 | 5.0 | 0.00 | 0.00 | 0.00 | 75 | 1010.5 |
| 20260507034548 | 71 | 211 | 2.0 | 5.0 | 0.00 | 0.00 | 0.00 | 75 | 1010.3 |
| 20260507033032 | 71 | 211 | 0.0 | 4.0 | 0.00 | 0.00 | 0.00 | 75 | 1010.3 |
| 20260507031518 | 71 | 211 | 0.0 | 6.0 | 0.00 | 0.00 | 0.00 | 75 | 1010.1 |
| 20260507030024 | 70 | 207 | 0.0 | 2.0 | 0.00 | 0.00 | 0.00 | 75 | 1010.7 |
| 20260507024521 | 71 | 207 | 0.0 | 2.0 | 0.00 | 0.00 | 0.00 | 74 | 1010.8 |
| 20260507023035 | 72 | 207 | 0.0 | 4.0 | 0.00 | 0.00 | 0.00 | 73 | 1010.9 |
| 20260507021517 | 72 | 207 | 0.0 | 2.0 | 0.00 | 0.00 | 0.00 | 72 | 1010.8 |
| 20260507014545 | 72 | 243 | 0.0 | 5.0 | 0.00 | 0.00 | 0.00 | 71 | 1011.1 |
| 20260507013005 | 73 | 246 | 0.0 | 4.0 | 0.00 | 0.00 | 0.00 | 70 | 1010.8 |
| 20260507011531 | 73 | 247 | 0.0 | 6.0 | 0.00 | 0.00 | 0.00 | 68 | 1010.7 |
| 20260507010021 | 74 | 248 | 0.0 | 5.0 | 0.00 | 0.00 | 0.00 | 67 | 1010.9 |
| 20260507004519 | 74 | 261 | 0.0 | 7.0 | 0.00 | 0.00 | 0.00 | 66 | 1010.9 |
| 20260507003029 | 75 | 238 | 0.0 | 4.0 | 0.00 | 0.00 | 0.00 | 65 | 1010.6 |
| 20260507001526 | 76 | 238 | 3.0 | 6.0 | 0.00 | 0.00 | 0.00 | 63 | 1010.5 |
| 20260506234511 | 77 | 238 | 3.0 | 8.0 | 0.00 | 0.00 | 0.00 | 61 | 1010.2 |
| 20260506233143 | 77 | 246 | 1.0 | 7.0 | 0.00 | 0.00 | 0.00 | 61 | 1010.0 |
| 20260506224530 | 78 | 246 | 1.0 | 9.0 | 0.00 | 0.00 | 0.00 | 59 | 1009.8 |
| 20260506223006 | 78 | 244 | 5.0 | 9.0 | 0.00 | 0.00 | 0.00 | 60 | 1009.9 |
| 20260506221547 | 78 | 250 | 3.0 | 12.0 | 0.00 | 0.00 | 0.00 | 59 | 1009.9 |
| 20260506214542 | 79 | 248 | 3.0 | 10.0 | 0.00 | 0.00 | 0.00 | 59 | 1009.6 |
| 20260506213112 | 79 | 261 | 3.0 | 13.0 | 0.00 | 0.00 | 0.00 | 59 | 1009.7 |
| 20260506211548 | 79 | 241 | 2.0 | 11.0 | 0.00 | 0.00 | 0.00 | 58 | 1009.4 |
| 20260506210048 | 79 | 218 | 2.0 | 9.0 | 0.00 | 0.00 | 0.00 | 60 | 1009.6 |
| 20260506204551 | 79 | 147 | 4.0 | 11.0 | 0.00 | 0.00 | 0.00 | 60 | 1009.9 |
| 20260506203021 | 79 | 248 | 3.0 | 14.0 | 0.00 | 0.00 | 0.00 | 58 | 1010.1 |
| 20260506201524 | 79 | 257 | 5.0 | 15.0 | 0.00 | 0.00 | 0.00 | 60 | 1010.4 |
| 20260506200018 | 79 | 252 | 3.0 | 8.0 | 0.00 | 0.00 | 0.00 | 64 | 1010.7 |
| 20260506194515 | 78 | 165 | 3.0 | 13.0 | 0.00 | 0.00 | 0.00 | 63 | 1011.1 |
| 20260506193012 | 79 | 271 | 2.0 | 9.0 | 0.00 | 0.00 | 0.00 | 63 | 1011.4 |
| 20260506191511 | 79 | 177 | 3.0 | 10.0 | 0.00 | 0.00 | 0.00 | 64 | 1011.4 |
| 20260506190008 | 77 | 213 | 2.0 | 13.0 | 0.00 | 0.00 | 0.00 | 64 | 1011.5 |
| 20260506184516 | 77 | 224 | 3.0 | 13.0 | 0.00 | 0.00 | 0.00 | 64 | 1011.7 |
| 20260506183007 | 77 | 217 | 5.0 | 11.0 | 0.00 | 0.00 | 0.00 | 64 | 1011.6 |
| 20260506181503 | 77 | 248 | 3.0 | 13.0 | 0.00 | 0.00 | 0.00 | 64 | 1011.9 |
| 20260506174607 | 76 | 279 | 3.0 | 14.0 | 0.00 | 0.00 | 0.00 | 64 | 1012.5 |
| 20260506173032 | 76 | 194 | 7.0 | 19.0 | 0.00 | 0.00 | 0.00 | 64 | 1012.8 |
| 20260506171531 | 75 | 248 | 3.0 | 11.0 | 0.00 | 0.00 | 0.00 | 67 | 1013.2 |
| 20260506170027 | 74 | 232 | 2.0 | 9.0 | 0.00 | 0.00 | 0.00 | 68 | 1013.1 |
| 20260506164526 | 73 | 184 | 2.0 | 10.0 | 0.00 | 0.00 | 0.00 | 69 | 1013.2 |
| 20260506163026 | 73 | 242 | 2.0 | 7.0 | 0.00 | 0.00 | 0.00 | 70 | 1013.2 |
| 20260506161523 | 73 | 190 | 4.0 | 11.0 | 0.00 | 0.00 | 0.00 | 70 | 1013.6 |